Flag for Algeria Weather past 2 weeks in Constantine, Algeria

Now
81 °F

Partly sunny.


Feels Like: 80 °F
Forecast: 64 / 95 °F
Wind: No wind

Location: Constantine Airport

Current Time: Aug 2, 2014 at 9:35:31 AM

Latest Report: Aug 2, 2014 at 9:00 AM


Visibility: N/A

Pressure: 29.98 "Hg

Humidity: 39%

Dew point: 54 °F

Location of ConstantineLocation

Historic Weather in Constantine — Graph

°F

Constantine temperature yesterday

Maximum temperature yesterday: 99 °F (at 4:00 PM)
Minimum temperature yesterday: 63 °F (at 5:30 AM)
Average temperature yesterday: 81 °F

Past Weeks' High & Low Weather Summary

 TemperatureHumidityPressure
High106 °F (Jul 20, 12:30 PM)88% (Jul 30, 2:00 AM)30.21 "Hg (Jul 30, 2:00 AM)
Low57 °F (Jul 22, 5:30 AM)10% (Jul 18, 4:00 PM)29.89 "Hg (Jul 25, 4:00 PM)
Average81 °F39%30.03 "Hg
* Reported Jul 18 8:00 AM — Aug 2 8:30 AM, Constantine, Weather by CustomWeather, © 2014

Note: Actual official high and low records may vary slightly from our data, if they occured in-between our weather recording intervals... More about our weather records

Advertising

Constantine weather history for previous 24 hours

 ConditionsComfort  
Time TempWeatherWind HumidityBarometerVisibility
8:30 AM
Aug 2
81 °FScattered clouds.No wind39%29.98 "HgN/A
8:00 AM77 °FScattered clouds.No wind44%29.95 "HgN/A
7:30 AM77 °FScattered clouds.8 mph44%29.95 "HgN/A
7:00 AM75 °FScattered clouds.8 mph47%29.95 "HgN/A
6:30 AM73 °FScattered clouds.No wind47%29.95 "HgN/A
6:00 AM70 °FScattered clouds.No wind53%29.92 "HgN/A
5:30 AM70 °FClear.No wind53%29.92 "Hg10 mi
5:00 AM73 °FClear.No wind47%29.92 "Hg10 mi
4:30 AM73 °FClear.No wind44%29.92 "Hg10 mi
4:00 AM73 °FClear.No wind44%29.92 "Hg10 mi
3:30 AM72 °FClear.No wind50%29.92 "Hg10 mi
3:00 AM72 °FClear.No wind50%29.92 "Hg10 mi
2:00 AM72 °FClear.No wind50%29.92 "Hg10 mi
1:30 AM73 °FClear.No wind47%29.92 "Hg10 mi
1:00 AM73 °FClear.No wind47%29.95 "Hg10 mi
12:30 AM73 °FClear.No wind50%29.95 "Hg10 mi
12:00 AM73 °FClear.No wind50%29.95 "Hg10 mi
11:30 PM
Aug 1
75 °FClear.No wind47%29.95 "Hg10 mi
11:00 PM75 °FClear.No wind47%29.95 "Hg10 mi
10:30 PM77 °FClear.7 mph47%29.95 "Hg10 mi
10:00 PM77 °FClear.7 mph47%29.95 "Hg10 mi
9:30 PM79 °FClear.7 mph45%29.95 "Hg10 mi
9:00 PM81 °FClear.7 mph42%29.95 "Hg10 mi
8:30 PM81 °FClear.5 mph39%29.95 "Hg10 mi
8:00 PM82 °FClear.12 mph37%29.95 "Hg10 mi
7:30 PM84 °FPassing clouds.14 mph35%29.95 "HgN/A
7:00 PM86 °FPassing clouds.14 mph33%29.92 "HgN/A
6:30 PM88 °FPassing clouds.17 mph31%29.92 "HgN/A
6:00 PM91 °FPassing clouds.14 mph28%29.92 "HgN/A
5:30 PM93 °FPassing clouds.14 mph28%29.92 "HgN/A
5:00 PM95 °FPassing clouds.16 mph26%29.92 "HgN/A
4:30 PM91 °FScattered clouds.15 mph30%29.92 "HgN/A
4:00 PM99 °FScattered clouds.7 mph22%29.92 "HgN/A
3:30 PM97 °FScattered clouds.9 mph23%29.92 "HgN/A
3:00 PM97 °FScattered clouds.8 mph22%29.92 "HgN/A
2:30 PM95 °FPassing clouds.7 mph23%29.95 "HgN/A
2:00 PM95 °FPassing clouds.9 mph23%29.95 "HgN/A
1:30 PM95 °FSunny.7 mph25%29.98 "Hg10 mi
1:00 PM93 °FSunny.8 mph24%29.98 "Hg10 mi
12:30 PM95 °FSunny.7 mph25%30.01 "Hg10 mi
12:00 PM93 °FSunny.8 mph24%30.01 "Hg10 mi
11:30 AM93 °FSunny.7 mph24%30.01 "Hg10 mi
11:00 AM91 °FSunny.5 mph28%30.01 "Hg10 mi
10:30 AM90 °FSunny.6 mph29%30.01 "Hg10 mi
10:00 AM86 °FSunny.No wind33%30.01 "Hg10 mi
9:30 AM84 °FSunny.No wind35%30.04 "Hg10 mi
9:00 AM81 °FSunny.No wind39%30.04 "Hg10 mi
Weather by CustomWeather, © 2014

See weather overviewHow to use our weather pages